Location: Unspecified
(44.4377°N, 88.0525°W)
Time: 14:26:43
(UTC-05:00)

CZ-3 Stage 3 - Visible Passes

Search period start: 31 July 2015 00:00
Search period end: 10 August 2015 00:00
Orbit: 435 x 34790 km, 31.0° (Epoch: 31 July)

Date Brightness Start Highest point End Pass type
(mag) Time Alt. Az. Time Alt. Az. Time Alt. Az.
01 Aug 6.5 04:16:11 15° SW 04:49:28 66° SSE 13:28:31 10° S visible
02 Aug 6.6 00:49:01 20° SE 00:58:15 26° ESE 09:33:41 10° SE visible
04 Aug 6.5 04:11:07 16° SW 04:44:12 67° SSE 13:22:13 10° S visible
05 Aug 6.5 00:43:57 22° SE 00:52:15 27° ESE 09:28:17 10° SE visible
07 Aug 6.5 04:06:03 17° SW 04:38:59 68° SSE 13:15:49 10° S visible
08 Aug 6.5 00:38:53 24° SE 00:46:16 28° ESE 09:22:49 10° SE visible
